Location: Unspecified
(0.0000°N, 0.0000°E)
Time: 06:25:53
(UTC+00:00)

Transit 2A - Pass Details

Date: 07 October 2022
Orbit: 598 x 959 km, 66.7° (Epoch: 06 December)

Event Time Altitude Azimuth Distance (km) Brightness Sun altitude
Rises 19:47:24 0° 190° (S) 3,246 9.4 -29.7°
Reaches altitude 10° 19:50:00 10° 184° (S) 2,256 8.5 -30.4°
Enters shadow 19:50:23 12° 183° (S) 2,113 8.3 -30.5°
